Big Bear Station Historical Data
Daily Summary for April 15, 2017 Units:  English    Metric   Both
« Previous Day
Next Day »
Daily Weekly Monthly Yearly Custom
  High: Low: Average:
Temperature: 68.2 °F 28.2 °F 46.3 °F
Dew Point: 36.9 °F 10.3 °F 25.8 °F
Humidity: 84 % 13 % 51 %
Wind Speed: 6.8 mph 0.0 mph 2.3 mph
Wind Gust: -999.0 mph - -
Wind:- - WSW
Pressure: 30.15 in 30.10 in -
Precipitation: 0.00 in    
Historical Graphs
 
 
Tabular Data for April 15, 2017
Time Temperature Dew Point Pressure Wind Wind Speed Wind Gust Humidity Rainfall Rate (Hourly)
00:14 33.6 °F 20.0 °F 30.10 in SSW 1.7 mph -999.0 mph 57 % 0 in
00:29 33.3 °F 21.7 °F 30.11 in SSE 1.7 mph -999.0 mph 62 % 0 in
00:45 33.1 °F 24.4 °F 30.10 in SSE 1.7 mph -999.0 mph 70 % 0 in
01:00 32.7 °F 24.7 °F 30.10 in Calm   -999.0 mph 72 % 0 in
01:16 32.7 °F 25.0 °F 30.11 in East 1.7 mph -999.0 mph 73 % 0 in
01:31 32.4 °F 23.7 °F 30.11 in South 2.7 mph -999.0 mph 70 % 0 in
01:46 31.8 °F 20.3 °F 30.10 in ESE 1.7 mph -999.0 mph 62 % 0 in
02:02 31.5 °F 20.3 °F 30.10 in South 1.7 mph -999.0 mph 63 % 0 in
02:17 31.6 °F 19.3 °F 30.10 in South 1.7 mph -999.0 mph 60 % 0 in
02:32 31.3 °F 19.8 °F 30.10 in SSE 1.1 mph -999.0 mph 62 % 0 in
02:47 31.3 °F 20.9 °F 30.10 in SSE 1.7 mph -999.0 mph 65 % 0 in
03:03 30.9 °F 20.5 °F 30.10 in SSE 1.7 mph -999.0 mph 65 % 0 in
03:18 30.9 °F 19.4 °F 30.10 in Calm   -999.0 mph 62 % 0 in
03:33 30.4 °F 20.4 °F 30.10 in South 1.7 mph -999.0 mph 66 % 0 in
03:48 30.4 °F 20.8 °F 30.10 in SSE 1.7 mph -999.0 mph 67 % 0 in
04:04 30.0 °F 20.7 °F 30.10 in South 1.7 mph -999.0 mph 68 % 0 in
04:19 29.7 °F 21.8 °F 30.10 in Calm   -999.0 mph 72 % 0 in
04:34 29.7 °F 23.1 °F 30.10 in Calm   -999.0 mph 76 % 0 in
04:49 29.5 °F 23.5 °F 30.10 in Calm   -999.0 mph 78 % 0 in
05:04 29.3 °F 23.9 °F 30.10 in Calm   -999.0 mph 80 % 0 in
05:20 29.1 °F 24.0 °F 30.11 in Calm   -999.0 mph 81 % 0 in
05:35 28.9 °F 24.1 °F 30.11 in SSE 2.2 mph -999.0 mph 82 % 0 in
05:50 28.2 °F 23.4 °F 30.11 in Calm   -999.0 mph 82 % 0 in
06:05 28.2 °F 22.2 °F 30.11 in SSE 1.7 mph -999.0 mph 78 % 0 in
06:20 28.2 °F 21.9 °F 30.12 in SSE 1.7 mph -999.0 mph 77 % 0 in
06:37 28.2 °F 23.4 °F 30.12 in South 1.7 mph -999.0 mph 82 % 0 in
06:52 28.8 °F 24.3 °F 30.12 in South 1.7 mph -999.0 mph 83 % 0 in
07:07 28.6 °F 24.4 °F 30.13 in Calm   -999.0 mph 84 % 0 in
07:22 28.9 °F 24.1 °F 30.13 in Calm   -999.0 mph 82 % 0 in
07:37 29.3 °F 24.2 °F 30.13 in Calm   -999.0 mph 81 % 0 in
07:53 29.8 °F 24.7 °F 30.14 in Calm   -999.0 mph 81 % 0 in
08:08 30.9 °F 25.8 °F 30.14 in Calm   -999.0 mph 81 % 0 in
08:23 33.3 °F 28.7 °F 30.14 in Calm   -999.0 mph 83 % 0 in
08:38 36.5 °F 30.0 °F 30.14 in Calm   -999.0 mph 77 % 0 in
08:53 39.6 °F 26.9 °F 30.14 in NW 1.7 mph -999.0 mph 60 % 0 in
09:09 42.3 °F 24.5 °F 30.14 in NW 1.7 mph -999.0 mph 49 % 0 in
09:24 45.0 °F 26.5 °F 30.14 in NW 2.2 mph -999.0 mph 48 % 0 in
09:39 47.1 °F 25.7 °F 30.14 in Calm   -999.0 mph 43 % 0 in
09:54 49.1 °F 24.6 °F 30.14 in NNW 2.7 mph -999.0 mph 38 % 0 in
10:09 50.9 °F 26.8 °F 30.14 in Calm   -999.0 mph 39 % 0 in
10:25 53.1 °F 27.5 °F 30.15 in Calm   -999.0 mph 37 % 0 in
10:40 58.1 °F 29.1 °F 30.14 in NW 2.7 mph -999.0 mph 33 % 0 in
10:56 61.7 °F 10.3 °F 30.14 in WNW 1.7 mph -999.0 mph 13 % 0 in
11:11 62.4 °F 10.9 °F 30.14 in ESE 1.7 mph -999.0 mph 13 % 0 in
11:26 64.8 °F 20.3 °F 30.14 in NW 3.7 mph -999.0 mph 18 % 0 in
11:41 66.6 °F 23.0 °F 30.14 in WNW 3.7 mph -999.0 mph 19 % 0 in
11:57 66.4 °F 26.4 °F 30.13 in NW 3.2 mph -999.0 mph 22 % 0 in
12:12 66.6 °F 28.7 °F 30.14 in NNW 4.2 mph -999.0 mph 24 % 0 in
12:27 67.5 °F 25.0 °F 30.13 in NNW 5.3 mph -999.0 mph 20 % 0 in
12:43 67.8 °F 25.2 °F 30.13 in NW 5.8 mph -999.0 mph 20 % 0 in
12:59 67.3 °F 30.3 °F 30.13 in West 6.3 mph -999.0 mph 25 % 0 in
13:14 68.0 °F 30.9 °F 30.13 in NW 6.8 mph -999.0 mph 25 % 0 in
13:29 68.0 °F 30.9 °F 30.13 in NNW 4.7 mph -999.0 mph 25 % 0 in
13:45 67.1 °F 31.1 °F 30.14 in NW 5.3 mph -999.0 mph 26 % 0 in
14:00 67.5 °F 33.2 °F 30.14 in NW 5.3 mph -999.0 mph 28 % 0 in
14:15 68.2 °F 32.0 °F 30.14 in North 4.2 mph -999.0 mph 26 % 0 in
14:31 67.1 °F 32.0 °F 30.13 in NW 3.2 mph -999.0 mph 27 % 0 in
14:46 66.7 °F 30.7 °F 30.13 in NNW 2.7 mph -999.0 mph 26 % 0 in
15:02 67.5 °F 31.4 °F 30.13 in WSW 4.2 mph -999.0 mph 26 % 0 in
15:17 66.4 °F 31.4 °F 30.13 in ESE 3.2 mph -999.0 mph 27 % 0 in
15:32 65.5 °F 34.1 °F 30.13 in NW 5.3 mph -999.0 mph 31 % 0 in
15:48 64.6 °F 32.5 °F 30.13 in NW 4.2 mph -999.0 mph 30 % 0 in
16:03 64.6 °F 32.5 °F 30.13 in NW 5.3 mph -999.0 mph 30 % 0 in
16:18 64.4 °F 33.9 °F 30.13 in NNW 5.3 mph -999.0 mph 32 % 0 in
16:34 64.0 °F 34.3 °F 30.13 in North 3.2 mph -999.0 mph 33 % 0 in
16:49 65.3 °F 35.5 °F 30.13 in WNW 6.3 mph -999.0 mph 33 % 0 in
17:04 66.7 °F 36.7 °F 30.13 in WNW 1.1 mph -999.0 mph 33 % 0 in
17:19 65.3 °F 36.9 °F 30.13 in WNW 3.7 mph -999.0 mph 35 % 0 in
Big Bear CA Weather
Compliments of Weather Underground - 1.25 mb